Time,TemperatureF,DewpointF,PressureIn,WindDirection,WindDirectionDegrees,WindSpeedMPH,WindSpeedGustMPH,Humidity,HourlyPrecipIn,Conditions,Clouds,dailyrainin,SoftwareType,DateUTC
2013-01-14 00:03:00,22.0,17.0,30.37,NNW,331,6.0,10.0,81,0.00,,,1.02,,2013-01-14 06:03:00,
2013-01-14 00:12:00,22.0,17.0,30.37,NNW,331,6.0,10.0,81,0.00,,,1.02,,2013-01-14 06:12:00,
2013-01-14 00:22:00,21.0,16.0,30.37,NW,320,7.0,10.0,81,0.00,,,1.02,,2013-01-14 06:22:00,
2013-01-14 00:33:00,21.0,16.0,30.37,NNW,348,8.0,12.0,79,0.00,,,1.02,,2013-01-14 06:33:00,
2013-01-14 00:42:00,21.0,16.0,30.37,NNW,348,8.0,12.0,79,0.00,,,1.02,,2013-01-14 06:42:00,
2013-01-14 00:52:00,21.0,16.0,30.38,North,350,6.0,12.0,80,0.00,,,0.88,,2013-01-14 06:52:00,
2013-01-14 01:02:00,21.0,16.0,30.37,NNW,340,5.0,8.0,82,0.00,,,0.88,,2013-01-14 07:02:00,
2013-01-14 01:12:00,21.0,16.0,30.37,NNW,340,5.0,8.0,82,0.00,,,0.88,,2013-01-14 07:12:00,
2013-01-14 01:22:00,21.0,16.0,30.38,NNW,341,5.0,8.0,82,0.00,,,0.88,,2013-01-14 07:22:00,
2013-01-14 01:33:00,21.0,16.0,30.39,NNW,336,6.0,10.0,82,0.00,,,0.88,,2013-01-14 07:33:00,
2013-01-14 01:42:00,21.0,16.0,30.39,NNW,336,6.0,10.0,82,0.00,,,0.88,,2013-01-14 07:42:00,
2013-01-14 01:52:00,21.0,16.0,30.40,NNW,330,7.0,10.0,80,0.00,,,0.75,,2013-01-14 07:52:00,
2013-01-14 02:02:00,21.0,16.0,30.41,North,355,6.0,10.0,81,0.00,,,0.75,,2013-01-14 08:02:00,
2013-01-14 02:12:00,21.0,16.0,30.41,North,355,6.0,10.0,81,0.00,,,0.75,,2013-01-14 08:12:00,
2013-01-14 02:22:00,20.0,15.0,30.42,NNW,327,6.0,8.0,81,0.00,,,0.75,,2013-01-14 08:22:00,
2013-01-14 02:32:00,20.0,15.0,30.42,NNW,342,6.0,12.0,81,0.00,,,0.75,,2013-01-14 08:32:00,
2013-01-14 02:42:00,20.0,15.0,30.42,NNW,342,6.0,12.0,81,0.00,,,0.75,,2013-01-14 08:42:00,
2013-01-14 02:52:00,20.0,15.0,30.42,NNW,327,6.0,10.0,80,0.00,,,0.62,,2013-01-14 08:52:00,
2013-01-14 03:02:00,20.0,15.0,30.42,NNW,348,7.0,11.0,80,0.00,,,0.62,,2013-01-14 09:02:00,
2013-01-14 03:12:00,20.0,15.0,30.42,NNW,348,7.0,11.0,80,0.00,,,0.62,,2013-01-14 09:12:00,
2013-01-14 03:22:00,20.0,15.0,30.42,NNW,333,7.0,11.0,81,0.00,,,0.62,,2013-01-14 09:22:00,
2013-01-14 03:33:00,20.0,15.0,30.42,NW,323,6.0,10.0,81,0.00,,,0.62,,2013-01-14 09:33:00,
2013-01-14 03:42:00,20.0,15.0,30.42,NW,323,6.0,10.0,81,0.00,,,0.62,,2013-01-14 09:42:00,
2013-01-14 03:52:00,20.0,15.0,30.42,NNW,348,6.0,10.0,81,0.00,,,0.52,,2013-01-14 09:52:00,
2013-01-14 04:02:00,20.0,15.0,30.42,NNW,348,6.0,10.0,81,0.00,,,0.52,,2013-01-14 10:02:00,
2013-01-14 04:12:00,20.0,15.0,30.42,NNW,348,6.0,10.0,81,0.00,,,0.52,,2013-01-14 10:12:00,
2013-01-14 04:22:00,20.0,16.0,30.43,NNW,341,5.0,8.0,83,0.00,,,0.52,,2013-01-14 10:22:00,
2013-01-14 04:32:00,20.0,15.0,30.43,NNW,347,6.0,9.0,82,0.00,,,0.52,,2013-01-14 10:32:00,
2013-01-14 04:42:00,20.0,15.0,30.43,NNW,347,6.0,9.0,82,0.00,,,0.52,,2013-01-14 10:42:00,
2013-01-14 04:52:00,20.0,15.0,30.43,North,355,6.0,9.0,82,0.00,,,0.42,,2013-01-14 10:52:00,
2013-01-14 05:02:00,20.0,15.0,30.43,NW,319,6.0,9.0,82,0.00,,,0.42,,2013-01-14 11:02:00,
2013-01-14 05:12:00,20.0,15.0,30.43,NW,319,6.0,9.0,82,0.00,,,0.42,,2013-01-14 11:12:00,
2013-01-14 05:22:00,19.0,15.0,30.44,NNW,340,5.0,8.0,83,0.00,,,0.42,,2013-01-14 11:22:00,
2013-01-14 05:32:00,19.0,14.0,30.44,NNW,340,8.0,11.0,82,0.00,,,0.42,,2013-01-14 11:32:00,
2013-01-14 05:42:00,19.0,14.0,30.44,NNW,340,8.0,11.0,82,0.00,,,0.42,,2013-01-14 11:42:00,
2013-01-14 05:53:00,19.0,14.0,30.44,NNW,345,6.0,11.0,82,0.00,,,0.34,,2013-01-14 11:53:00,
2013-01-14 06:03:00,19.0,14.0,30.45,NW,322,8.0,11.0,82,0.00,,,0.34,,2013-01-14 12:03:00,
2013-01-14 06:12:00,19.0,14.0,30.45,NW,322,8.0,11.0,82,0.00,,,0.34,,2013-01-14 12:12:00,
2013-01-14 06:23:00,19.0,14.0,30.45,North,349,7.0,11.0,82,0.00,,,0.34,,2013-01-14 12:23:00,
2013-01-14 06:33:00,19.0,15.0,30.46,North,360,9.0,13.0,83,0.00,,,0.34,,2013-01-14 12:33:00,
2013-01-14 06:43:00,19.0,15.0,30.46,North,360,9.0,13.0,83,0.00,,,0.34,,2013-01-14 12:43:00,
2013-01-14 06:52:00,19.0,15.0,30.47,NNW,344,6.0,11.0,83,0.00,,,0.26,,2013-01-14 12:52:00,
2013-01-14 07:03:00,19.0,15.0,30.47,North,360,6.0,9.0,83,0.00,,,0.26,,2013-01-14 13:03:00,
2013-01-14 07:12:00,19.0,15.0,30.47,North,360,6.0,9.0,83,0.00,,,0.26,,2013-01-14 13:12:00,
2013-01-14 07:23:00,19.0,15.0,30.47,North,355,6.0,9.0,84,0.00,,,0.26,,2013-01-14 13:23:00,
2013-01-14 07:33:00,19.0,15.0,30.47,North,5,6.0,8.0,85,0.00,,,0.26,,2013-01-14 13:33:00,
2013-01-14 07:43:00,19.0,15.0,30.47,North,5,6.0,8.0,85,0.00,,,0.26,,2013-01-14 13:43:00,
2013-01-14 07:53:00,19.0,15.0,30.47,North,360,6.0,11.0,84,0.00,,,0.20,,2013-01-14 13:53:00,
2013-01-14 08:03:00,19.0,14.0,30.48,North,11,5.0,10.0,82,0.00,,,0.20,,2013-01-14 14:03:00,
2013-01-14 08:13:00,19.0,14.0,30.48,North,11,5.0,10.0,82,0.00,,,0.20,,2013-01-14 14:13:00,
2013-01-14 08:22:00,19.0,14.0,30.47,North,11,7.0,10.0,82,0.00,,,0.20,,2013-01-14 14:22:00,
2013-01-14 08:33:00,20.0,16.0,30.47,North,11,5.0,8.0,84,0.00,,,0.20,,2013-01-14 14:33:00,
2013-01-14 08:43:00,20.0,16.0,30.47,North,11,5.0,8.0,84,0.00,,,0.20,,2013-01-14 14:43:00,
2013-01-14 08:53:00,20.0,16.0,30.47,North,11,6.0,10.0,83,0.00,,,0.14,,2013-01-14 14:53:00,
2013-01-14 09:03:00,20.0,16.0,30.47,NNE,12,6.0,9.0,83,0.00,,,0.14,,2013-01-14 15:03:00,
2013-01-14 09:12:00,20.0,16.0,30.47,NNE,12,6.0,9.0,83,0.00,,,0.14,,2013-01-14 15:12:00,
2013-01-14 09:23:00,21.0,17.0,30.48,NNE,12,5.0,8.0,83,0.00,,,0.14,,2013-01-14 15:23:00,
2013-01-14 09:33:00,21.0,17.0,30.48,NNE,12,5.0,8.0,83,0.00,,,0.14,,2013-01-14 15:33:00,
2013-01-14 09:43:00,21.0,17.0,30.48,NNE,12,5.0,8.0,83,0.00,,,0.14,,2013-01-14 15:43:00,
2013-01-14 09:53:00,21.0,16.0,30.48,North,5,7.0,10.0,81,0.00,,,0.09,,2013-01-14 15:53:00,
2013-01-14 10:03:00,22.0,18.0,30.49,North,9,6.0,10.0,83,0.00,,,0.09,,2013-01-14 16:03:00,
2013-01-14 10:12:00,22.0,18.0,30.49,North,9,6.0,10.0,83,0.00,,,0.09,,2013-01-14 16:12:00,
2013-01-14 10:23:00,22.0,18.0,30.48,NNW,342,6.0,10.0,84,0.00,,,0.09,,2013-01-14 16:23:00,
2013-01-14 10:33:00,22.0,17.0,30.51,North,350,6.0,10.0,81,0.00,,,0.09,,2013-01-14 16:33:00,
2013-01-14 10:43:00,22.0,17.0,30.51,North,350,6.0,10.0,81,0.00,,,0.09,,2013-01-14 16:43:00,
2013-01-14 10:53:00,22.0,17.0,30.51,NNW,327,7.0,10.0,81,0.00,,,0.05,,2013-01-14 16:53:00,
2013-01-14 11:03:00,22.0,17.0,30.49,North,355,7.0,10.0,82,0.00,,,0.05,,2013-01-14 17:03:00,
2013-01-14 11:12:00,22.0,17.0,30.49,North,355,7.0,10.0,82,0.00,,,0.05,,2013-01-14 17:12:00,
2013-01-14 11:23:00,23.0,19.0,30.51,North,5,7.0,12.0,83,0.00,,,0.05,,2013-01-14 17:23:00,
2013-01-14 11:33:00,22.0,17.0,30.49,NW,326,8.0,13.0,82,0.00,,,0.05,,2013-01-14 17:33:00,
2013-01-14 11:43:00,22.0,17.0,30.49,NW,326,8.0,13.0,82,0.00,,,0.05,,2013-01-14 17:43:00,
2013-01-14 11:53:00,23.0,18.0,30.47,NW,326,8.0,12.0,82,0.00,,,0.04,,2013-01-14 17:53:00,
2013-01-14 12:03:00,22.0,17.0,30.48,North,355,7.0,12.0,82,0.00,,,0.04,,2013-01-14 18:03:00,
2013-01-14 12:12:00,22.0,17.0,30.48,North,355,7.0,12.0,82,0.00,,,0.04,,2013-01-14 18:12:00,
2013-01-14 12:23:00,23.0,18.0,30.48,North,360,8.0,13.0,82,0.00,,,0.04,,2013-01-14 18:23:00,
2013-01-14 12:33:00,23.0,18.0,30.47,NNW,345,9.0,12.0,82,0.00,,,0.04,,2013-01-14 18:33:00,
2013-01-14 12:43:00,23.0,18.0,30.47,NNW,345,9.0,12.0,82,0.00,,,0.04,,2013-01-14 18:43:00,
2013-01-14 12:52:00,23.0,19.0,30.47,North,5,6.0,10.0,83,0.00,,,0.01,,2013-01-14 18:52:00,
2013-01-14 13:03:00,23.0,18.0,30.46,NNW,347,8.0,12.0,82,0.00,,,0.01,,2013-01-14 19:03:00,
2013-01-14 13:12:00,23.0,18.0,30.46,NNW,347,8.0,12.0,82,0.00,,,0.01,,2013-01-14 19:12:00,
2013-01-14 13:22:00,23.0,19.0,30.49,NW,322,6.0,11.0,83,0.00,,,0.01,,2013-01-14 19:22:00,
2013-01-14 13:33:00,23.0,19.0,30.53,WNW,290,2.0,9.0,83,0.00,,,0.01,,2013-01-14 19:33:00,
2013-01-14 13:43:00,23.0,19.0,30.53,WNW,290,2.0,9.0,83,0.00,,,0.01,,2013-01-14 19:43:00,
2013-01-14 13:52:00,23.0,18.0,30.52,NNW,343,5.0,8.0,82,0.00,,,0.00,,2013-01-14 19:52:00,
2013-01-14 14:03:00,23.0,18.0,30.51,NNW,339,2.0,6.0,82,0.00,,,0.00,,2013-01-14 20:03:00,
2013-01-14 14:13:00,23.0,18.0,30.51,NNW,339,2.0,6.0,82,0.00,,,0.00,,2013-01-14 20:13:00,
2013-01-14 14:22:00,23.0,19.0,30.51,NNW,330,6.0,9.0,83,0.00,,,0.00,,2013-01-14 20:22:00,
2013-01-14 14:33:00,23.0,18.0,30.50,NNW,335,6.0,9.0,82,0.00,,,0.00,,2013-01-14 20:33:00,
2013-01-14 14:42:00,23.0,18.0,30.50,NNW,335,6.0,9.0,82,0.00,,,0.00,,2013-01-14 20:42:00,
2013-01-14 14:53:00,24.0,19.0,30.49,NNW,348,8.0,12.0,81,0.00,,,0.00,,2013-01-14 20:53:00,
2013-01-14 15:03:00,24.0,19.0,30.49,NNE,12,8.0,12.0,82,0.00,,,0.00,,2013-01-14 21:03:00,
2013-01-14 15:12:00,24.0,19.0,30.49,NNE,12,8.0,12.0,82,0.00,,,0.00,,2013-01-14 21:12:00,
2013-01-14 15:23:00,24.0,19.0,30.48,NNW,342,8.0,11.0,82,0.00,,,0.00,,2013-01-14 21:23:00,
2013-01-14 15:33:00,24.0,19.0,30.49,North,355,9.0,14.0,81,0.00,,,0.00,,2013-01-14 21:33:00,
2013-01-14 15:42:00,24.0,19.0,30.49,North,355,9.0,14.0,81,0.00,,,0.00,,2013-01-14 21:42:00,
2013-01-14 15:53:00,24.0,19.0,30.47,North,355,9.0,12.0,82,0.00,,,0.00,,2013-01-14 21:53:00,
2013-01-14 16:03:00,24.0,19.0,30.46,North,9,11.0,14.0,81,0.00,,,0.00,,2013-01-14 22:03:00,
2013-01-14 16:12:00,24.0,19.0,30.46,North,9,11.0,14.0,81,0.00,,,0.00,,2013-01-14 22:12:00,
2013-01-14 16:23:00,24.0,19.0,30.47,NNE,16,8.0,11.0,82,0.00,,,0.00,,2013-01-14 22:23:00,
2013-01-14 16:33:00,24.0,19.0,30.47,NE,40,6.0,10.0,82,0.00,,,0.00,,2013-01-14 22:33:00,
2013-01-14 16:43:00,24.0,19.0,30.47,NE,40,6.0,10.0,82,0.00,,,0.00,,2013-01-14 22:43:00,
2013-01-14 16:52:00,24.0,19.0,30.47,NNE,22,8.0,12.0,82,0.00,,,0.00,,2013-01-14 22:52:00,
2013-01-14 17:03:00,25.0,20.0,30.47,North,360,7.0,11.0,82,0.00,,,0.00,,2013-01-14 23:03:00,
2013-01-14 17:12:00,25.0,20.0,30.47,North,360,7.0,11.0,82,0.00,,,0.00,,2013-01-14 23:12:00,
2013-01-14 17:23:00,25.0,20.0,30.47,NNE,17,6.0,11.0,82,0.00,,,0.00,,2013-01-14 23:23:00,
2013-01-14 17:33:00,25.0,21.0,30.47,NNE,24,6.0,8.0,83,0.00,,,0.00,,2013-01-14 23:33:00,
2013-01-14 17:43:00,25.0,21.0,30.47,NNE,24,6.0,8.0,83,0.00,,,0.00,,2013-01-14 23:43:00,
2013-01-14 17:53:00,25.0,20.0,30.46,NNE,25,7.0,10.0,82,0.00,,,0.00,,2013-01-14 23:53:00,
2013-01-14 18:02:00,24.0,20.0,30.46,NE,39,6.0,8.0,83,0.00,,,0.00,,2013-01-15 00:02:00,
2013-01-14 18:12:00,24.0,20.0,30.46,NE,39,6.0,8.0,83,0.00,,,0.00,,2013-01-15 00:12:00,
2013-01-14 18:22:00,24.0,20.0,30.47,NNE,19,6.0,8.0,83,0.00,,,0.00,,2013-01-15 00:22:00,
2013-01-14 18:33:00,24.0,20.0,30.46,North,5,4.0,7.0,84,0.00,,,0.00,,2013-01-15 00:33:00,
2013-01-14 18:43:00,24.0,20.0,30.46,North,5,4.0,7.0,84,0.00,,,0.00,,2013-01-15 00:43:00,
2013-01-14 18:52:00,24.0,20.0,30.46,NNE,30,3.0,7.0,85,0.00,,,0.00,,2013-01-15 00:52:00,
2013-01-14 19:02:00,24.0,20.0,30.46,NNE,25,5.0,7.0,85,0.00,,,0.00,,2013-01-15 01:02:00,
2013-01-14 19:12:00,24.0,20.0,30.46,NNE,25,5.0,7.0,85,0.00,,,0.00,,2013-01-15 01:12:00,
2013-01-14 19:22:00,24.0,20.0,30.45,NNE,17,4.0,7.0,85,0.00,,,0.00,,2013-01-15 01:22:00,
2013-01-14 19:32:00,23.0,19.0,30.45,North,5,5.0,7.0,86,0.00,,,0.00,,2013-01-15 01:32:00,
2013-01-14 19:43:00,23.0,19.0,30.45,North,5,5.0,7.0,86,0.00,,,0.00,,2013-01-15 01:43:00,
2013-01-14 19:52:00,23.0,19.0,30.45,NNE,14,4.0,9.0,86,0.00,,,0.00,,2013-01-15 01:52:00,
2013-01-14 20:02:00,23.0,19.0,30.44,NNE,19,6.0,9.0,86,0.00,,,0.00,,2013-01-15 02:02:00,
2013-01-14 20:12:00,23.0,19.0,30.44,NNE,19,6.0,9.0,86,0.00,,,0.00,,2013-01-15 02:12:00,
2013-01-14 20:22:00,23.0,19.0,30.44,NNE,16,6.0,10.0,86,0.00,,,0.00,,2013-01-15 02:22:00,
2013-01-14 20:32:00,23.0,19.0,30.44,NNE,20,6.0,9.0,86,0.00,,,0.00,,2013-01-15 02:32:00,
2013-01-14 20:42:00,23.0,19.0,30.44,NNE,20,6.0,9.0,86,0.00,,,0.00,,2013-01-15 02:42:00,
2013-01-14 20:52:00,23.0,20.0,30.43,NNE,19,5.0,9.0,87,0.00,,,0.00,,2013-01-15 02:52:00,
2013-01-14 21:02:00,23.0,20.0,30.44,NNE,25,7.0,10.0,87,0.00,,,0.00,,2013-01-15 03:02:00,
2013-01-14 21:12:00,23.0,20.0,30.44,NNE,25,7.0,10.0,87,0.00,,,0.00,,2013-01-15 03:12:00,
2013-01-14 21:22:00,23.0,20.0,30.44,North,11,6.0,10.0,87,0.00,,,0.00,,2013-01-15 03:22:00,
2013-01-14 21:33:00,23.0,20.0,30.44,NNE,17,6.0,9.0,87,0.00,,,0.00,,2013-01-15 03:33:00,
2013-01-14 21:42:00,23.0,20.0,30.44,NNE,17,6.0,9.0,87,0.00,,,0.00,,2013-01-15 03:42:00,
2013-01-14 21:52:00,23.0,20.0,30.44,NNE,22,6.0,9.0,87,0.00,,,0.00,,2013-01-15 03:52:00,
2013-01-14 22:02:00,22.0,19.0,30.44,NNE,21,6.0,8.0,87,0.00,,,0.00,,2013-01-15 04:02:00,
2013-01-14 22:12:00,22.0,19.0,30.44,NNE,21,6.0,8.0,87,0.00,,,0.00,,2013-01-15 04:12:00,
2013-01-14 22:22:00,22.0,19.0,30.44,NNE,17,7.0,10.0,87,0.00,,,0.00,,2013-01-15 04:22:00,
2013-01-14 22:32:00,22.0,18.0,30.44,NNE,22,7.0,10.0,86,0.00,,,0.00,,2013-01-15 04:32:00,
2013-01-14 22:42:00,22.0,18.0,30.44,NNE,22,7.0,10.0,86,0.00,,,0.00,,2013-01-15 04:42:00,
2013-01-14 22:52:00,22.0,19.0,30.45,NE,34,7.0,10.0,87,0.00,,,0.00,,2013-01-15 04:52:00,
2013-01-14 23:03:00,22.0,19.0,30.45,NNE,19,5.0,8.0,87,0.00,,,0.00,,2013-01-15 05:03:00,
2013-01-14 23:12:00,22.0,19.0,30.45,NNE,19,5.0,8.0,87,0.00,,,0.00,,2013-01-15 05:12:00,
2013-01-14 23:22:00,22.0,19.0,30.45,NNE,14,6.0,9.0,87,0.00,,,0.00,,2013-01-15 05:22:00,
2013-01-14 23:33:00,22.0,19.0,30.45,NNE,15,6.0,8.0,87,0.00,,,0.00,,2013-01-15 05:33:00,
2013-01-14 23:42:00,22.0,19.0,30.45,NNE,15,6.0,8.0,87,0.00,,,0.00,,2013-01-15 05:42:00,
2013-01-14 23:52:00,22.0,19.0,30.44,NNE,25,7.0,9.0,88,0.00,,,0.00,,2013-01-15 05:52:00,